ACA771 CYYZ-CYQM

Flight info

Callsign ACA771
Flight time 1h 39m
Altitude 37000
Route DEDKI5 OLABA Q951 TALNO Q929 TOXAL DCT DANOL Q951 PUXOP
Aircraft B38M/M-SDE1FGHILORVWXY/HB1

Departure

Time 2026-05-04 21:45
Airport Toronto Pearson International Airport (CYYZ)

Arrival

Time 2026-05-04 23:24
Airport Greater Moncton Roméo LeBlanc International Airport (CYQM)
Time Latitude Longitude Altitude Speed Heading
2026-05-04 21:25 43.67885 -79.61604 573 ft 0 kts 316°
2026-05-04 21:27 43.67885 -79.61603 573 ft 0 kts 316°
2026-05-04 21:35 43.67877 -79.61593 569 ft 3 kts 311°
2026-05-04 21:36 43.67865 -79.61571 573 ft 3 kts 298°
2026-05-04 21:36 43.67857 -79.61545 573 ft 3 kts 284°
2026-05-04 21:36 43.67855 -79.61518 568 ft 3 kts 266°
2026-05-04 21:36 43.67859 -79.61492 571 ft 3 kts 243°
2026-05-04 21:37 43.67866 -79.61477 567 ft 1 kts 226°
2026-05-04 21:39 43.67861 -79.61483 569 ft 2 kts 226°
2026-05-04 21:39 43.67846 -79.61506 568 ft 5 kts 227°
2026-05-04 21:40 43.67803 -79.61569 565 ft 13 kts 226°
2026-05-04 21:40 43.67725 -79.61644 569 ft 14 kts 186°
2026-05-04 21:40 43.67627 -79.61683 571 ft 15 kts 213°
2026-05-04 21:40 43.67537 -79.61719 570 ft 14 kts 160°
2026-05-04 21:41 43.67444 -79.61617 568 ft 20 kts 137°
2026-05-04 21:41 43.67339 -79.61479 567 ft 21 kts 136°
2026-05-04 21:41 43.67240 -79.61351 570 ft 17 kts 136°
2026-05-04 21:41 43.67161 -79.61246 566 ft 16 kts 128°
2026-05-04 21:42 43.67194 -79.61087 563 ft 24 kts 47°
2026-05-04 21:42 43.67319 -79.60905 562 ft 27 kts 46°
2026-05-04 21:42 43.67442 -79.60729 564 ft 23 kts 46°
2026-05-04 21:42 43.67537 -79.60589 563 ft 19 kts 46°
2026-05-04 21:43 43.67624 -79.60464 563 ft 17 kts 46°
2026-05-04 21:43 43.67713 -79.60335 567 ft 21 kts 46°
2026-05-04 21:43 43.67827 -79.60169 563 ft 25 kts 46°
2026-05-04 21:43 43.67945 -79.59998 569 ft 19 kts 48°
2026-05-04 21:44 43.67963 -79.59878 568 ft 9 kts 124°
2026-05-04 21:44 43.67920 -79.59819 562 ft 10 kts 139°
2026-05-04 21:44 43.67837 -79.59830 561 ft 17 kts 219°
2026-05-04 21:44 43.67723 -79.59990 571 ft 47 kts 226°
2026-05-04 21:45 43.67304 -79.60595 562 ft 125 kts 226°
2026-05-04 21:45 43.66594 -79.61634 944 ft 159 kts 227°
2026-05-04 21:45 43.65815 -79.62783 1890 ft 169 kts 227°
2026-05-04 21:45 43.65006 -79.64003 2795 ft 180 kts 227°
2026-05-04 21:46 43.64093 -79.65349 3417 ft 203 kts 227°
2026-05-04 21:46 43.63099 -79.66791 4357 ft 212 kts 227°
2026-05-04 21:46 43.61982 -79.68237 5188 ft 230 kts 215°
2026-05-04 21:46 43.60379 -79.68764 6081 ft 253 kts 180°
2026-05-04 21:47 43.58644 -79.67891 6552 ft 280 kts 151°
2026-05-04 21:47 43.57237 -79.65949 6701 ft 291 kts 137°
2026-05-04 21:47 43.55785 -79.64047 6876 ft 286 kts 148°
2026-05-04 21:47 43.54214 -79.62424 7811 ft 283 kts 151°
2026-05-04 21:48 43.52581 -79.60833 8750 ft 293 kts 146°
2026-05-04 21:48 43.51337 -79.58537 9716 ft 310 kts 116°
2026-05-04 21:48 43.50932 -79.55569 10474 ft 328 kts 90°
2026-05-04 21:48 43.51389 -79.52407 11035 ft 346 kts 72°
2026-05-04 21:49 43.52066 -79.49158 11625 ft 360 kts 75°
2026-05-04 21:49 43.52733 -79.45773 12285 ft 371 kts 75°
2026-05-04 21:49 43.53440 -79.42317 13081 ft 377 kts 72°
2026-05-04 21:49 43.54237 -79.38842 13853 ft 382 kts 72°
2026-05-04 21:50 43.55033 -79.35322 14600 ft 386 kts 72°
2026-05-04 21:50 43.55830 -79.31769 15345 ft 390 kts 72°
2026-05-04 21:50 43.56632 -79.28179 16074 ft 394 kts 72°
2026-05-04 21:50 43.57440 -79.24553 16791 ft 398 kts 72°
2026-05-04 21:51 43.58255 -79.20885 17502 ft 402 kts 72°
2026-05-04 21:51 43.59077 -79.17185 18142 ft 406 kts 72°
2026-05-04 21:51 43.59905 -79.13446 18730 ft 410 kts 71°
2026-05-04 21:51 43.60741 -79.09670 19312 ft 413 kts 71°
2026-05-04 21:52 43.61581 -79.05862 19890 ft 417 kts 71°
2026-05-04 21:52 43.62428 -79.02021 20465 ft 420 kts 71°
2026-05-04 21:52 43.63281 -78.98145 21043 ft 424 kts 71°
2026-05-04 21:52 43.64140 -78.94229 21589 ft 427 kts 70°
2026-05-04 21:53 43.65004 -78.90287 22149 ft 431 kts 70°
2026-05-04 21:53 43.65863 -78.86364 22672 ft 435 kts 70°
2026-05-04 21:53 43.66739 -78.82352 23215 ft 438 kts 70°
2026-05-04 21:53 43.67619 -78.78310 23663 ft 441 kts 70°
2026-05-04 21:54 43.68505 -78.74244 24125 ft 443 kts 70°
2026-05-04 21:54 43.69548 -78.70237 24570 ft 443 kts 63°
2026-05-04 21:54 43.70747 -78.66306 24991 ft 446 kts 63°
2026-05-04 21:54 43.71959 -78.62347 25439 ft 448 kts 63°
2026-05-04 21:55 43.73178 -78.58378 25873 ft 450 kts 63°
2026-05-04 21:55 43.74405 -78.54379 26300 ft 453 kts 63°
2026-05-04 21:55 43.75638 -78.50360 26723 ft 455 kts 63°
2026-05-04 21:55 43.76876 -78.46317 27131 ft 458 kts 63°
2026-05-04 21:56 43.78119 -78.42252 27542 ft 460 kts 63°
2026-05-04 21:56 43.79367 -78.38164 27947 ft 462 kts 63°
2026-05-04 21:56 43.80618 -78.34060 28335 ft 464 kts 63°
2026-05-04 21:56 43.81876 -78.29926 28722 ft 467 kts 63°
2026-05-04 21:57 43.83139 -78.25771 29098 ft 469 kts 63°
2026-05-04 21:57 43.84404 -78.21599 29476 ft 471 kts 63°
2026-05-04 21:57 43.85676 -78.17401 29818 ft 474 kts 63°
2026-05-04 21:57 43.86952 -78.13180 30125 ft 476 kts 63°
2026-05-04 21:58 43.88232 -78.08939 30435 ft 478 kts 63°
2026-05-04 21:58 43.89515 -78.04682 30731 ft 480 kts 63°
2026-05-04 21:58 43.90801 -78.00409 31028 ft 482 kts 63°
2026-05-04 21:58 43.92091 -77.96111 31320 ft 484 kts 63°
2026-05-04 21:59 43.93386 -77.91793 31615 ft 486 kts 62°
2026-05-04 21:59 43.94684 -77.87456 31907 ft 488 kts 62°
2026-05-04 21:59 43.95984 -77.83105 32185 ft 489 kts 62°
2026-05-04 21:59 43.97290 -77.78729 32466 ft 491 kts 62°
2026-05-04 22:00 43.98596 -77.74344 32756 ft 493 kts 62°
2026-05-04 22:00 43.99906 -77.69935 33063 ft 494 kts 62°
2026-05-04 22:00 44.01215 -77.65527 33457 ft 493 kts 62°
2026-05-04 22:00 44.02516 -77.61133 33825 ft 492 kts 62°
2026-05-04 22:01 44.03815 -77.56740 34155 ft 491 kts 62°
2026-05-04 22:01 44.05111 -77.52350 34465 ft 491 kts 62°
2026-05-04 22:01 44.06406 -77.47961 34786 ft 490 kts 63°
2026-05-04 22:01 44.07720 -77.43599 35091 ft 488 kts 59°
2026-05-04 22:02 44.09159 -77.39341 35398 ft 487 kts 60°
2026-05-04 22:02 44.10584 -77.35062 35678 ft 487 kts 60°
2026-05-04 22:02 44.11999 -77.30773 35976 ft 487 kts 60°
2026-05-04 22:02 44.13407 -77.26494 36267 ft 487 kts 60°
2026-05-04 22:03 44.14814 -77.22214 36538 ft 486 kts 60°
2026-05-04 22:03 44.16222 -77.17926 36728 ft 487 kts 60°
2026-05-04 22:03 44.17628 -77.13635 36724 ft 487 kts 60°
2026-05-04 22:04 44.20407 -77.05133 36719 ft 485 kts 60°
2026-05-04 22:04 44.23195 -76.96575 36718 ft 485 kts 60°
2026-05-04 22:05 44.25980 -76.87999 36719 ft 485 kts 61°
2026-05-04 22:05 44.28753 -76.79433 36725 ft 485 kts 61°
2026-05-04 22:06 44.31521 -76.70853 36726 ft 484 kts 61°
2026-05-04 22:06 44.34279 -76.62277 36721 ft 484 kts 61°
2026-05-04 22:07 44.37032 -76.53689 36726 ft 484 kts 61°
2026-05-04 22:07 44.39777 -76.45096 36721 ft 484 kts 61°
2026-05-04 22:08 44.42512 -76.36508 36721 ft 484 kts 61°
2026-05-04 22:08 44.45244 -76.27906 36718 ft 484 kts 61°
2026-05-04 22:09 44.47968 -76.19290 36715 ft 483 kts 61°
2026-05-04 22:09 44.50680 -76.10678 36709 ft 483 kts 61°
2026-05-04 22:10 44.53387 -76.02058 36704 ft 483 kts 61°
2026-05-04 22:10 44.56083 -75.93444 36707 ft 483 kts 61°
2026-05-04 22:11 44.58776 -75.84808 36704 ft 483 kts 62°
2026-05-04 22:11 44.61460 -75.76175 36695 ft 483 kts 62°
2026-05-04 22:12 44.64140 -75.67529 36691 ft 483 kts 62°
2026-05-04 22:12 44.66614 -75.58731 36687 ft 485 kts 64°
2026-05-04 22:13 44.69042 -75.49888 36690 ft 485 kts 64°
2026-05-04 22:13 44.71447 -75.41031 36692 ft 485 kts 64°
2026-05-04 22:14 44.73975 -75.32337 36689 ft 484 kts 63°
2026-05-04 22:14 44.76546 -75.23593 36688 ft 484 kts 63°
2026-05-04 22:15 44.79104 -75.14842 36712 ft 484 kts 63°
2026-05-04 22:15 44.81657 -75.06083 36702 ft 484 kts 63°
2026-05-04 22:16 44.84202 -74.97317 36709 ft 483 kts 63°
2026-05-04 22:16 44.86739 -74.88546 36707 ft 483 kts 63°
2026-05-04 22:17 44.89272 -74.79761 36708 ft 483 kts 63°
2026-05-04 22:17 44.91688 -74.70909 36696 ft 486 kts 70°
2026-05-04 22:18 44.93632 -74.61770 36705 ft 486 kts 69°
2026-05-04 22:18 44.95301 -74.54196 36703 ft 486 kts 69°
2026-05-04 22:19 44.97314 -74.45096 36701 ft 486 kts 69°
2026-05-04 22:19 44.99292 -74.35967 36691 ft 487 kts 71°
2026-05-04 22:20 45.01000 -74.26708 36693 ft 487 kts 71°
2026-05-04 22:20 45.02731 -74.17458 36697 ft 487 kts 71°
2026-05-04 22:21 45.04459 -74.08206 36702 ft 487 kts 72°
2026-05-04 22:21 45.06177 -73.98955 36698 ft 486 kts 72°
2026-05-04 22:22 45.07762 -73.89646 36689 ft 489 kts 82°
2026-05-04 22:22 45.08128 -73.80004 36686 ft 491 kts 84°
2026-05-04 22:23 45.08510 -73.70353 36713 ft 492 kts 84°
2026-05-04 22:23 45.08881 -73.60758 36709 ft 492 kts 84°
2026-05-04 22:24 45.09225 -73.51097 36720 ft 492 kts 85°
2026-05-04 22:24 45.09555 -73.41430 36720 ft 491 kts 85°
2026-05-04 22:25 45.09877 -73.31775 36726 ft 491 kts 85°
2026-05-04 22:25 45.10192 -73.22119 36725 ft 491 kts 85°
2026-05-04 22:26 45.10498 -73.12463 36727 ft 491 kts 85°
2026-05-04 22:26 45.10795 -73.02813 36730 ft 491 kts 85°
2026-05-04 22:27 45.11085 -72.93156 36733 ft 491 kts 85°
2026-05-04 22:27 45.11367 -72.83493 36737 ft 491 kts 86°
2026-05-04 22:28 45.11641 -72.73826 36745 ft 491 kts 86°
2026-05-04 22:28 45.11906 -72.64166 36752 ft 491 kts 86°
2026-05-04 22:29 45.12163 -72.54495 36763 ft 492 kts 86°
2026-05-04 22:29 45.12412 -72.44827 36751 ft 491 kts 86°
2026-05-04 22:30 45.12653 -72.35155 36762 ft 491 kts 86°
2026-05-04 22:30 45.12886 -72.25490 36751 ft 491 kts 86°
2026-05-04 22:31 45.13111 -72.15823 36758 ft 491 kts 86°
2026-05-04 22:31 45.13327 -72.06160 36760 ft 491 kts 86°
2026-05-04 22:32 45.13535 -71.96498 36768 ft 490 kts 87°
2026-05-04 22:32 45.13735 -71.86845 36767 ft 490 kts 87°
2026-05-04 22:33 45.13926 -71.77260 36778 ft 490 kts 87°
2026-05-04 22:33 45.14112 -71.67606 36774 ft 490 kts 87°
2026-05-04 22:34 45.14389 -71.57978 36771 ft 488 kts 78°
2026-05-04 22:34 45.15886 -71.48634 36786 ft 488 kts 76°
2026-05-04 22:35 45.17388 -71.39258 36795 ft 488 kts 75°
2026-05-04 22:35 45.18909 -71.29885 36793 ft 488 kts 75°
2026-05-04 22:36 45.20424 -71.20507 36800 ft 488 kts 75°
2026-05-04 22:36 45.21931 -71.11124 36793 ft 488 kts 76°
2026-05-04 22:37 45.23432 -71.01726 36791 ft 488 kts 76°
2026-05-04 22:37 45.24926 -70.92319 36795 ft 489 kts 76°
2026-05-04 22:38 45.26413 -70.82904 36796 ft 489 kts 76°
2026-05-04 22:38 45.27892 -70.73486 36797 ft 489 kts 76°
2026-05-04 22:39 45.29365 -70.64051 36798 ft 489 kts 76°
2026-05-04 22:39 45.30829 -70.54617 36794 ft 489 kts 76°
2026-05-04 22:40 45.32286 -70.45173 36795 ft 489 kts 77°
2026-05-04 22:40 45.33737 -70.35716 36798 ft 489 kts 77°
2026-05-04 22:41 45.35179 -70.26260 36788 ft 490 kts 77°
2026-05-04 22:41 45.36613 -70.16800 36793 ft 490 kts 77°
2026-05-04 22:42 45.38040 -70.07332 36789 ft 490 kts 77°
2026-05-04 22:42 45.39460 -69.97850 36786 ft 490 kts 77°
2026-05-04 22:43 45.40872 -69.88369 36795 ft 490 kts 77°
2026-05-04 22:43 45.42274 -69.78896 36784 ft 489 kts 77°
2026-05-04 22:44 45.43660 -69.69473 36790 ft 489 kts 78°
2026-05-04 22:44 45.45046 -69.59990 36792 ft 489 kts 78°
2026-05-04 22:45 45.46426 -69.50492 36785 ft 489 kts 78°
2026-05-04 22:45 45.48478 -69.36259 36796 ft 489 kts 78°
2026-05-04 22:46 45.49836 -69.26768 36786 ft 489 kts 78°
2026-05-04 22:46 45.51187 -69.17267 36784 ft 489 kts 79°
2026-05-04 22:47 45.52527 -69.07772 36780 ft 488 kts 79°
2026-05-04 22:47 45.53860 -68.98278 36797 ft 488 kts 79°
2026-05-04 22:48 45.55184 -68.88779 36790 ft 488 kts 79°
2026-05-04 22:48 45.56501 -68.79278 36786 ft 488 kts 79°
2026-05-04 22:49 45.57809 -68.69777 36781 ft 488 kts 79°
2026-05-04 22:49 45.59109 -68.60276 36781 ft 488 kts 80°
2026-05-04 22:50 45.60399 -68.50785 36785 ft 487 kts 80°
2026-05-04 22:50 45.61681 -68.41283 36786 ft 487 kts 80°
2026-05-04 22:51 45.62955 -68.31787 36786 ft 486 kts 80°
2026-05-04 22:51 45.64218 -68.22302 36789 ft 486 kts 81°
2026-05-04 22:52 45.65476 -68.12810 36788 ft 486 kts 81°
2026-05-04 22:52 45.66726 -68.03325 36788 ft 485 kts 81°
2026-05-04 22:53 45.67959 -67.93903 36779 ft 485 kts 81°
2026-05-04 22:53 45.68573 -67.89191 36209 ft 482 kts 81°
2026-05-04 22:53 45.69186 -67.84472 35301 ft 481 kts 81°
2026-05-04 22:54 45.69854 -67.79838 34668 ft 472 kts 76°
2026-05-04 22:54 45.70746 -67.75381 34202 ft 461 kts 76°
2026-05-04 22:54 45.71589 -67.70985 33772 ft 456 kts 77°
2026-05-04 22:54 45.72409 -67.66622 33160 ft 454 kts 77°
2026-05-04 22:55 45.73219 -67.62265 32574 ft 451 kts 77°
2026-05-04 22:55 45.74019 -67.57947 32069 ft 446 kts 77°
2026-05-04 22:55 45.74806 -67.53690 31610 ft 440 kts 78°
2026-05-04 22:55 45.75583 -67.49479 31118 ft 435 kts 78°
2026-05-04 22:56 45.76350 -67.45314 30605 ft 431 kts 78°
2026-05-04 22:56 45.77110 -67.41175 30110 ft 427 kts 78°
2026-05-04 22:56 45.77858 -67.37096 29572 ft 422 kts 78°
2026-05-04 22:56 45.78597 -67.33054 29040 ft 417 kts 78°
2026-05-04 22:57 45.79344 -67.29089 28802 ft 405 kts 77°
2026-05-04 22:57 45.80132 -67.25282 28657 ft 392 kts 77°
2026-05-04 22:57 45.80886 -67.21597 28504 ft 380 kts 77°
2026-05-04 22:57 45.81614 -67.18004 28221 ft 372 kts 77°
2026-05-04 22:58 45.82340 -67.14410 27364 ft 380 kts 76°
2026-05-04 22:58 45.83083 -67.10735 26484 ft 388 kts 76°
2026-05-04 22:58 45.83836 -67.06990 25824 ft 391 kts 76°
2026-05-04 22:58 45.84581 -67.03277 25562 ft 386 kts 76°
2026-05-04 22:59 45.85324 -66.99571 25273 ft 387 kts 76°
2026-05-04 22:59 45.86065 -66.95867 25007 ft 386 kts 75°
2026-05-04 22:59 45.86804 -66.92169 24736 ft 385 kts 75°
2026-05-04 22:59 45.87538 -66.88482 24480 ft 384 kts 76°
2026-05-04 23:00 45.88270 -66.84807 24215 ft 382 kts 76°
2026-05-04 23:00 45.88997 -66.81146 23927 ft 381 kts 75°
2026-05-04 23:00 45.89721 -66.77495 23622 ft 379 kts 76°
2026-05-04 23:00 45.90439 -66.73868 23320 ft 378 kts 75°
2026-05-04 23:01 45.91156 -66.70242 22965 ft 376 kts 75°
2026-05-04 23:01 45.91865 -66.66652 22610 ft 373 kts 75°
2026-05-04 23:01 45.92569 -66.63073 22263 ft 370 kts 76°
2026-05-04 23:01 45.93265 -66.59525 21919 ft 368 kts 76°
2026-05-04 23:02 45.93956 -66.56002 21580 ft 365 kts 76°
2026-05-04 23:02 45.94640 -66.52505 21248 ft 362 kts 76°
2026-05-04 23:02 45.95319 -66.49034 20921 ft 360 kts 76°
2026-05-04 23:02 45.95991 -66.45583 20601 ft 357 kts 76°
2026-05-04 23:03 45.96660 -66.42150 20289 ft 356 kts 75°
2026-05-04 23:03 45.97323 -66.38734 19967 ft 354 kts 75°
2026-05-04 23:03 45.97983 -66.35336 19653 ft 352 kts 75°
2026-05-04 23:03 45.98637 -66.31956 19346 ft 350 kts 75°
2026-05-04 23:04 45.99288 -66.28586 19032 ft 350 kts 75°
2026-05-04 23:04 45.99929 -66.25263 18731 ft 348 kts 75°
2026-05-04 23:04 46.00573 -66.21921 18430 ft 346 kts 74°
2026-05-04 23:04 46.01211 -66.18601 18129 ft 344 kts 74°
2026-05-04 23:05 46.01849 -66.15281 17801 ft 343 kts 74°
2026-05-04 23:05 46.02479 -66.11991 17459 ft 339 kts 73°
2026-05-04 23:05 46.03101 -66.08740 17128 ft 335 kts 73°
2026-05-04 23:05 46.03714 -66.05528 16775 ft 331 kts 73°
2026-05-04 23:06 46.04320 -66.02350 16440 ft 327 kts 72°
2026-05-04 23:06 46.04919 -65.99209 16112 ft 324 kts 72°
2026-05-04 23:06 46.05510 -65.96095 15782 ft 321 kts 72°
2026-05-04 23:06 46.06096 -65.93007 15464 ft 319 kts 72°
2026-05-04 23:07 46.06678 -65.89934 15135 ft 317 kts 72°
2026-05-04 23:07 46.07060 -65.87915 14939 ft 315 kts 71°
2026-05-04 23:07 46.07633 -65.84876 14617 ft 313 kts 72°
2026-05-04 23:07 46.08203 -65.81854 14300 ft 312 kts 71°
2026-05-04 23:08 46.08959 -65.77837 13890 ft 310 kts 71°
2026-05-04 23:08 46.09332 -65.75856 13678 ft 309 kts 71°
2026-05-04 23:08 46.09891 -65.72877 13363 ft 308 kts 71°
2026-05-04 23:08 46.10448 -65.69904 13020 ft 306 kts 71°
2026-05-04 23:09 46.11001 -65.66950 12672 ft 305 kts 71°
2026-05-04 23:09 46.11551 -65.64004 12339 ft 304 kts 72°
2026-05-04 23:09 46.12098 -65.61069 12011 ft 303 kts 71°
2026-05-04 23:09 46.12643 -65.58143 11689 ft 302 kts 72°
2026-05-04 23:10 46.13184 -65.55238 11348 ft 299 kts 72°
2026-05-04 23:10 46.13717 -65.52359 11022 ft 296 kts 72°
2026-05-04 23:10 46.14246 -65.49509 10705 ft 293 kts 72°
2026-05-04 23:10 46.14769 -65.46684 10388 ft 290 kts 71°
2026-05-04 23:11 46.15285 -65.43891 10073 ft 285 kts 72°
2026-05-04 23:11 46.15790 -65.41150 9761 ft 281 kts 71°
2026-05-04 23:11 46.16288 -65.38450 9533 ft 277 kts 71°
2026-05-04 23:11 46.16780 -65.35777 9295 ft 275 kts 71°
2026-05-04 23:12 46.17266 -65.33125 9054 ft 273 kts 72°
2026-05-04 23:12 46.17750 -65.30490 8825 ft 271 kts 71°
2026-05-04 23:12 46.18230 -65.27869 8597 ft 269 kts 72°
2026-05-04 23:12 46.18705 -65.25269 8377 ft 268 kts 72°
2026-05-04 23:13 46.19178 -65.22682 8136 ft 266 kts 72°
2026-05-04 23:13 46.19648 -65.20107 7911 ft 265 kts 72°
2026-05-04 23:13 46.20114 -65.17547 7690 ft 263 kts 72°
2026-05-04 23:13 46.20576 -65.15006 7471 ft 261 kts 72°
2026-05-04 23:14 46.21035 -65.12478 7252 ft 260 kts 72°
2026-05-04 23:14 46.21491 -65.09965 7034 ft 258 kts 72°
2026-05-04 23:14 46.21944 -65.07464 6824 ft 257 kts 72°
2026-05-04 23:14 46.22137 -65.06397 6737 ft 256 kts 72°
2026-05-04 23:15 46.22477 -65.04517 6577 ft 256 kts 72°
2026-05-04 23:15 46.22925 -65.02037 6363 ft 254 kts 72°
2026-05-04 23:15 46.23369 -64.99573 6152 ft 253 kts 72°
2026-05-04 23:15 46.23811 -64.97119 5937 ft 252 kts 72°
2026-05-04 23:16 46.24250 -64.94675 5712 ft 251 kts 72°
2026-05-04 23:16 46.24688 -64.92236 5494 ft 251 kts 72°
2026-05-04 23:16 46.25126 -64.89804 5275 ft 250 kts 72°
2026-05-04 23:16 46.25559 -64.87381 5055 ft 248 kts 72°
2026-05-04 23:17 46.25991 -64.84967 4842 ft 247 kts 72°
2026-05-04 23:17 46.26420 -64.82569 4626 ft 246 kts 71°
2026-05-04 23:17 46.26845 -64.80187 4414 ft 245 kts 71°
2026-05-04 23:17 46.27269 -64.77807 4193 ft 244 kts 71°
2026-05-04 23:18 46.27691 -64.75441 3966 ft 243 kts 71°
2026-05-04 23:18 46.28111 -64.73077 3746 ft 243 kts 71°
2026-05-04 23:18 46.28529 -64.70722 3532 ft 240 kts 71°
2026-05-04 23:18 46.28941 -64.68401 3311 ft 236 kts 71°
2026-05-04 23:19 46.29349 -64.66094 2952 ft 238 kts 70°
2026-05-04 23:19 46.29760 -64.63769 2720 ft 237 kts 70°
2026-05-04 23:19 46.30151 -64.61537 2687 ft 218 kts 71°
2026-05-04 23:19 46.30148 -64.59434 2653 ft 217 kts 101°
2026-05-04 23:20 46.29323 -64.57468 2676 ft 240 kts 125°
2026-05-04 23:20 46.28172 -64.55665 2715 ft 246 kts 126°
2026-05-04 23:20 46.26981 -64.53866 2760 ft 251 kts 134°
2026-05-04 23:20 46.25417 -64.52683 2741 ft 261 kts 162°
2026-05-04 23:21 46.23605 -64.52598 2744 ft 264 kts 191°
2026-05-04 23:21 46.21944 -64.53633 2728 ft 256 kts 219°
2026-05-04 23:21 46.20831 -64.55428 2589 ft 229 kts 243°
2026-05-04 23:21 46.19899 -64.57204 2353 ft 218 kts 230°
2026-05-04 23:22 46.18821 -64.58609 2165 ft 197 kts 225°
2026-05-04 23:22 46.17846 -64.59847 1894 ft 177 kts 228°
2026-05-04 23:22 46.16974 -64.61009 1623 ft 166 kts 230°
2026-05-04 23:22 46.16135 -64.62124 1375 ft 162 kts 229°
2026-05-04 23:23 46.15321 -64.63202 1104 ft 156 kts 230°
2026-05-04 23:23 46.14557 -64.64218 839 ft 143 kts 227°
2026-05-04 23:23 46.13852 -64.65144 630 ft 133 kts 226°
2026-05-04 23:23 46.13179 -64.66027 397 ft 129 kts 225°
2026-05-04 23:24 46.12520 -64.66894 254 ft 127 kts 225°
2026-05-04 23:24 46.11963 -64.67639 222 ft 73 kts 225°
2026-05-04 23:24 46.11887 -64.67737 220 ft 0 kts 224°
2026-05-04 23:26 46.11889 -64.68022 221 ft 19 kts 242°
2026-05-04 23:26 46.11803 -64.68164 223 ft 18 kts 223°
2026-05-04 23:26 46.11715 -64.68279 221 ft 15 kts 221°
2026-05-04 23:26 46.11642 -64.68374 222 ft 13 kts 222°
2026-05-04 23:27 46.11579 -64.68458 221 ft 11 kts 223°
2026-05-04 23:27 46.11542 -64.68540 221 ft 9 kts 277°
2026-05-04 23:27 46.11545 -64.68622 221 ft 8 kts 250°
2026-05-04 23:27 46.11529 -64.68706 221 ft 10 kts 287°
2026-05-04 23:28 46.11558 -64.68762 221 ft 0 kts 312°